Regional Weather Roundup
Issued by NWS

Home | Current Version | Previous Version | Text Only | Print | Product List | Glossary On
Versions: 1 2 3 4 5 6 7 8 9 10 11 12 13 14 15 16 17 18 19 20 21 22 23 24 25 26 27 28 29 30 31 32 33 34 35 36 37 38 39 40 41 42 43 44 45 46 47 48 49 50
000
ASUS43 KLSX 080807
RWRMO

WEATHER SUMMARY FOR MISSOURI
NATIONAL WEATHER SERVICE SPRINGFIELD MO
200 AM CST THU DEC 08 2016

NOTE: "FAIR" INDICATES FEW OR NO CLOUDS BELOW 12,000 FEET WITH NO
       SIGNIFICANT WEATHER AND/OR OBSTRUCTIONS TO VISIBILITY.
       CURRENT SKY AND/OR WEATHER CONDITIONS ARE NOT AVAILABLE FOR
       CHILLICOTHE AND FARMINGTON.

MOZ001>031-035>038-043-044-053-054-080900-
...NORTHERN AND WESTERN MISSOURI...

CITY           SKY/WX    TMP DP  RH WIND       PRES   REMARKS
KANSAS CTY INT CLEAR     19   6  57 NW13      30.47R WCI   6
KANSAS C DTWN  CLEAR     20   8  60 W8        30.50R WCI  10
LEE`S SUMMIT   CLEAR     19   8  62 W10       30.48R WCI   7
ST JOSEPH      CLEAR     18   7  62 NW12      30.49R WCI   5
CHILLICOTHE      N/A     19   8  62 NW7       30.46R WCI  10
KIRKSVILLE     CLEAR     17   9  70 W9        30.39R WCI   6

$$
MOZ066>068-077>081-088>096-101>105-080900-
...SOUTHWEST MISSOURI...

CITY           SKY/WX    TMP DP  RH WIND       PRES   REMARKS
SPRINGFIELD    CLEAR     21  13  71 NW9       30.46R WCI  11
JOPLIN         CLEAR     20  16  84 N8        30.53R WCI  10
BRANSON        PTCLDY    25  18  74 NW14      30.44R WCI  13

$$
MOZ032>034-039>042-045>050-055>058-069>072-080900-
...CENTRAL MISSOURI...

CITY           SKY/WX    TMP DP  RH WIND       PRES   REMARKS
COLUMBIA       CLEAR     20  11  68 W8        30.42R WCI  10
JEFFERSON CITY CLEAR     21  12  68 W8        30.46R WCI  11
ROLLA          CLEAR     20  12  71 W8        30.40R WCI  10
SEDALIA        CLEAR     21  11  65 W10       30.46R WCI  10
WHITEMAN AFB   CLEAR     20  13  74 W7        30.46R WCI  11
WARRENSBURG    CLEAR     19  10  68 W7        30.48R WCI  10
OSAGE BEACH    CLEAR     21  12  68 NW7       30.47R WCI  12

$$
MOZ051-052-059>065-080900-
...EAST CENTRAL MISSOURI...

CITY           SKY/WX    TMP DP  RH WIND       PRES   REMARKS
ST LOUIS INTL  CLEAR     25  11  55 W13       30.39R WCI  14
SPIRIT OF STL  CLEAR     24  13  62 W8        30.41R WCI  15
ST CHARLES     CLEAR     24  13  62 NW13      30.39R WCI  12

$$
MOZ072>076-082>087-097>100-106>115-080900-
...SOUTH CENTRAL AND SOUTHEAST MISSOURI...

CITY           SKY/WX    TMP DP  RH WIND       PRES   REMARKS
CAPE GIRARDEAU PTCLDY    32  21  64 NW16G25   30.37R WCI  21
FARMINGTON     CLEAR     26  18  71 NW14      30.37R WCI  14
POPLAR BLUFF   CLOUDY    34  25  69 NW17      30.37R WCI  23
WEST PLAINS    CLOUDY    26  19  74 NW8       30.41R WCI  18

$$



USA.gov is the U.S. government's official web portal to all federal, state and local government web resources and services.